Location: Albany
(35.0170°S, 117.8920°E)
Time: 09:59:08
(UTC+08:00)

S-56A Canister/Altair - Pass Details

Date: 24 January 2021
Orbit: 632 x 2501 km, 38.9° (Epoch: 25 February)

Event Time Altitude Azimuth Distance (km) Brightness Sun altitude
Rises 11:38:04 0° 334° (NNW) 5,084 11.8 71.6°
Reaches altitude 10° 11:41:25 10° 342° (NNW) 4,332 11.7 71.9°
Maximum altitude 11:52:30 39° 45° (NE) 3,163 11.7 73.0°
Drops below altitude 10° 12:05:45 10° 105° (ESE) 5,179 11.9 73.8°
Sets 12:10:08 0° 111° (ESE) 6,158 12.1 74.0°
